GFSSE_850_thetae_324.txt.gz
Theta_e
338 336 337 338 338 336 336 338 337 335 335 334 336 336 335 337 339 338 339 340 338 339 334 334 333 335 339 340 337 334 334 335 335 336 337 339 341 341 339 342 340 338 338
334 337 340 338 338 337 337 336 336 335 334 335 334 336 338 336 337 337 337 337 336 335 339 331 332 332 332 333 333 335 332 330 334 335 337 341 342 341 339 342 338 332 329
335 338 339 339 337 337 336 335 335 337 336 337 337 336 337 338 335 334 336 338 330 332 333 333 333 334 333 334 337 335 339 338 332 333 338 340 344 342 334 335 333 331 332
338 339 339 337 336 335 335 337 337 335 335 336 337 337 341 333 332 337 341 331 329 332 332 332 330 330 333 338 342 336 340 341 342 335 331 337 342 338 336 333 332 332 334
337 338 337 336 336 335 335 336 336 336 334 336 339 337 341 339 341 340 329 331 335 334 334 333 333 329 330 339 342 340 342 341 343 343 339 330 334 334 335 335 333 332 332
336 336 335 335 336 336 335 337 337 334 336 338 341 340 334 333 331 330 334 335 333 333 333 333 332 332 329 331 339 340 342 344 343 343 340 330 329 332 332 334 335 335 334
338 335 336 334 335 335 334 335 335 335 336 338 335 334 332 332 337 336 335 335 335 336 336 336 335 339 340 342 344 345 345 345 344 344 343 337 329 330 330 330 331 334 333
343 337 336 334 334 333 331 335 336 337 334 336 329 326 328 332 337 335 335 336 337 338 338 337 337 339 344 345 347 346 346 344 343 341 343 343 330 332 330 330 332 333 330
337 335 335 332 331 331 332 335 333 334 334 327 325 325 326 333 333 332 334 337 338 339 339 338 338 338 340 343 345 338 337 342 343 341 344 340 331 330 328 330 329 330 329
332 328 329 326 330 333 332 332 331 327 324 324 326 328 332 333 333 334 336 338 339 339 339 340 343 343 342 344 338 340 339 338 344 342 344 341 334 333 333 330 329 329 330
342 341 334 322 324 328 330 330 326 325 325 326 329 331 332 332 334 335 337 338 338 338 340 345 348 346 346 345 346 338 337 340 341 343 343 342 338 337 337 337 333 331 330
342 343 337 326 325 326 326 326 327 329 331 335 343 344 341 338 335 336 337 337 340 342 342 346 348 351 348 351 346 346 338 342 342 343 342 339 338 340 338 339 338 336 335
341 346 344 324 324 325 326 332 345 346 348 349 349 347 348 343 340 339 341 343 344 345 345 343 342 345 345 346 347 346 346 346 345 341 345 345 341 341 341 342 341 341 339
342 347 339 328 326 330 331 340 344 346 346 342 345 342 343 346 345 346 344 344 339 334 339 335 342 344 344 347 347 347 347 346 345 345 344 345 344 343 343 343 343 343 343
341 346 340 337 331 343 343 336 341 346 347 338 344 344 345 338 340 338 339 336 336 333 335 338 343 345 344 348 348 348 348 346 347 346 346 346 347 344 342 342 343 344 344
342 342 341 338 337 339 342 345 342 343 347 346 347 339 341 341 342 340 338 340 337 341 343 346 347 347 347 346 345 342 345 345 346 344 346 347 348 350 347 345 343 344 344
341 340 342 342 340 341 342 345 348 346 349 347 349 346 344 344 347 345 344 344 347 346 345 347 346 344 345 345 342 345 345 346 346 345 346 347 348 349 350 349 347 345 343
340 340 341 341 341 341 343 350 348 349 346 348 348 344 339 341 342 343 347 345 348 346 345 346 348 346 345 338 343 341 341 346 346 346 346 348 347 343 349 350 349 348 344
339 339 340 341 343 341 347 349 348 347 346 348 347 347 344 342 341 341 341 344 347 346 348 346 348 347 345 342 342 341 342 346 345 345 344 346 346 346 347 344 350 349 347
339 339 341 339 341 340 345 345 349 346 348 346 346 346 346 347 345 346 341 344 342 345 345 347 345 346 345 339 337 342 343 346 343 345 346 345 346 346 346 347 348 349 349
339 339 341 341 340 338 341 342 347 346 346 344 343 344 342 348 348 348 345 343 341 341 342 343 343 342 341 341 343 343 344 344 343 344 343 342 339 345 345 345 347 347 348
340 340 341 342 342 342 336 342 345 343 341 343 341 341 345 350 350 350 349 344 343 345 340 338 336 343 342 343 342 341 344 342 337 339 339 339 333 337 339 336 335 335 337
341 341 341 342 344 343 343 339 336 340 345 348 349 345 347 350 349 347 347 346 346 346 341 340 342 342 343 342 341 340 342 344 339 334 331 329 330 333 331 334 333 335 337
343 342 342 343 343 344 344 344 340 344 347 348 347 349 348 347 349 347 345 345 344 343 342 343 343 341 342 343 343 343 342 344 343 340 333 327 326 326 328 330 337 340 343
344 343 343 344 343 342 346 345 341 347 348 347 346 346 347 347 347 344 341 339 341 345 344 344 342 341 341 343 343 340 342 340 337 338 339 330 324 327 331 339 339 334 332
345 345 343 345 345 344 344 345 345 348 345 345 345 345 346 347 346 345 344 338 343 340 340 342 342 340 339 341 339 337 332 330 329 330 330 326 321 324 332 336 330 325 324

GFSSE_850_thetae_327.txt.gz
Theta_e
335 336 341 339 340 337 336 336 336 335 337 339 337 336 335 334 333 338 341 339 339 338 336 335 336 339 340 340 338 336 335 335 335 336 337 337 338 339 340 340 338 339 339
333 336 337 338 336 336 338 336 336 335 337 341 336 337 338 339 339 340 339 339 340 339 332 332 333 337 336 334 334 332 333 334 335 336 339 341 339 338 340 340 337 338 339
335 338 338 337 337 337 336 336 334 334 336 338 338 337 336 337 336 338 335 335 341 333 332 332 333 333 333 335 337 337 332 330 335 337 337 340 340 336 340 338 334 333 331
335 338 339 338 337 338 336 335 335 335 337 337 337 335 334 334 339 342 336 329 333 331 330 330 334 335 338 339 336 340 339 335 332 335 336 341 340 337 338 334 333 330 330
338 338 337 337 336 336 336 335 335 340 336 336 336 337 333 338 334 329 329 333 334 333 333 330 331 333 340 340 340 341 341 342 343 340 335 336 339 337 333 332 332 333 334
338 339 336 335 335 334 335 335 335 335 336 337 335 339 337 336 328 331 334 333 333 333 333 333 329 330 339 339 340 342 343 344 345 342 337 331 333 332 336 333 333 333 333
336 335 335 335 335 333 336 336 334 335 335 342 339 330 332 330 332 333 332 333 333 335 336 336 335 334 335 340 342 344 344 344 343 343 342 336 330 329 330 337 336 334 333
335 335 334 334 334 333 335 337 334 333 334 333 331 330 336 336 334 333 334 336 337 338 338 338 341 343 344 346 346 342 346 343 342 341 340 340 330 331 329 330 333 334 333
337 337 334 333 334 332 335 337 335 333 337 329 326 328 334 335 333 334 336 338 339 339 339 338 339 342 344 343 341 339 337 340 341 341 342 336 331 330 329 330 336 337 330
337 336 333 331 330 331 335 334 334 335 329 325 325 327 334 333 334 336 337 339 339 338 339 340 340 342 344 343 339 338 338 340 340 342 342 339 334 332 331 329 331 330 329
331 331 327 328 332 331 332 332 336 340 325 326 328 332 332 333 335 337 338 338 338 341 345 346 347 346 344 345 345 342 341 340 341 342 342 340 338 336 336 334 330 330 329
339 336 326 323 329 329 328 327 325 325 326 328 330 332 333 334 336 337 337 338 340 342 345 347 344 347 344 345 346 345 342 344 342 343 342 340 339 340 337 337 337 332 331
338 339 328 323 326 326 325 326 326 329 337 338 334 332 333 334 336 337 338 342 342 344 344 338 340 344 343 343 347 346 346 346 344 343 343 343 341 341 340 339 338 339 336
345 343 325 324 325 326 328 336 339 346 347 345 344 340 338 338 339 342 343 342 342 340 339 336 342 345 345 346 346 346 345 346 346 345 342 346 343 343 342 341 341 341 341
344 337 326 325 327 329 339 346 347 342 344 339 340 344 343 343 342 343 343 337 333 334 336 339 345 344 345 348 346 346 345 345 345 346 345 346 346 343 342 342 342 342 342
343 339 329 333 332 332 342 342 348 346 341 343 343 342 342 338 340 339 337 338 335 341 338 342 344 346 347 346 343 342 342 343 343 344 343 344 345 347 344 342 342 342 342
342 341 334 331 343 343 341 343 346 348 344 346 343 338 341 342 346 343 337 344 338 342 342 343 343 343 344 344 343 344 341 339 341 342 344 342 345 344 347 346 345 342 342
342 342 338 336 341 342 342 344 346 347 346 348 348 343 344 343 345 343 344 343 343 343 344 343 341 342 344 343 343 345 342 343 346 343 343 344 344 343 346 348 348 344 342
341 341 339 339 339 340 343 345 347 348 343 349 349 348 342 343 341 338 336 336 339 344 340 340 342 346 345 343 340 338 339 343 345 343 344 344 346 344 346 346 347 349 345
340 340 339 339 340 341 342 347 348 348 347 347 345 347 347 346 344 345 343 340 340 334 337 340 343 347 343 345 340 339 343 345 344 343 345 345 346 346 346 346 348 349 345
339 339 339 340 341 342 342 345 348 347 347 347 347 346 344 348 347 346 345 344 343 344 346 346 344 342 341 340 341 343 345 344 343 343 344 342 343 344 345 346 347 346 349
339 339 339 340 339 338 341 344 345 347 346 345 343 341 341 343 348 347 348 347 345 345 345 344 340 338 340 341 342 341 343 341 337 339 339 337 340 343 341 344 347 346 345
339 339 339 340 340 337 332 342 343 346 345 342 342 342 342 341 347 349 349 348 347 345 346 346 342 342 342 342 341 341 342 343 330 327 327 330 330 333 335 338 334 334 338
341 340 341 340 341 340 338 334 334 344 345 340 342 346 344 346 350 350 349 348 346 344 344 343 343 341 341 340 341 341 341 340 339 338 326 326 327 329 335 336 338 338 341
340 340 341 341 341 343 342 342 339 343 343 337 344 346 347 347 345 347 347 346 342 341 341 343 341 342 342 341 340 340 340 342 342 340 329 330 336 340 339 339 335 333 332
340 341 341 341 342 343 343 343 343 340 336 343 344 346 346 347 346 345 345 345 343 341 342 342 342 342 340 340 340 340 338 336 331 330 327 330 332 331 330 327 327 326 325

GFSSE_850_thetae_333.txt.gz
Theta_e
340 340 342 342 341 337 341 338 332 335 344 345 345 344 341 334 330 332 335 336 336 337 338 338 340 340 341 340 335 335 335 336 336 338 340 340 338 337 338 338 340 345 340
340 341 343 341 340 335 338 339 334 330 338 344 344 340 333 335 341 342 341 340 339 338 337 341 340 336 334 333 332 332 333 335 337 338 340 339 339 341 339 337 341 342 337
340 340 340 341 339 338 340 338 340 339 335 338 338 336 340 341 342 340 339 340 334 337 334 333 334 336 334 331 328 329 331 333 334 338 337 346 343 342 339 338 339 340 339
336 339 340 339 340 337 341 341 340 340 340 341 341 342 342 342 343 339 342 334 339 333 332 333 335 336 336 335 334 332 330 333 334 336 337 342 346 339 338 336 337 337 338
336 339 344 342 338 338 340 342 339 341 341 341 341 341 339 340 338 335 340 333 336 332 333 334 337 336 339 338 339 339 337 334 330 331 337 335 346 338 333 331 331 331 332
337 337 344 342 343 343 343 342 341 340 339 339 335 340 342 343 330 330 334 340 333 328 331 335 338 338 340 341 342 343 343 342 336 330 329 333 334 334 332 331 331 330 329
338 339 344 343 343 339 340 337 338 341 341 338 337 341 338 329 332 342 338 339 332 329 328 331 337 337 339 342 344 343 342 342 344 341 332 330 331 332 333 333 333 333 333
339 339 342 338 335 338 342 341 338 340 337 341 341 342 329 331 337 335 332 332 332 330 328 328 333 338 343 343 343 341 338 341 342 342 339 331 329 329 330 333 333 332 333
340 335 334 336 341 339 340 336 339 342 342 340 331 330 331 331 331 332 334 335 336 337 338 340 343 344 344 341 338 339 339 339 341 342 342 336 330 329 329 329 330 332 332
340 339 340 341 342 343 338 335 337 340 337 333 334 332 331 332 333 335 336 337 337 338 340 341 342 341 340 338 338 341 342 339 340 342 342 341 335 331 329 329 330 332 330
340 336 334 336 342 339 340 336 338 341 333 328 333 331 331 333 335 337 337 338 338 339 341 343 344 344 345 344 345 346 344 342 341 342 342 341 340 335 333 331 330 330 330
337 338 335 335 332 334 341 336 334 338 328 327 332 330 331 334 336 337 337 338 341 344 345 341 345 343 344 344 345 344 346 344 343 342 341 341 341 339 336 336 335 331 330
334 333 331 331 330 334 338 334 335 334 325 326 331 330 332 334 336 337 337 339 341 344 344 341 341 342 343 344 346 346 346 345 344 343 343 342 341 341 340 338 338 337 333
329 329 327 332 331 331 330 331 332 325 326 329 330 331 333 335 336 337 337 340 341 341 342 337 341 342 345 345 345 345 344 345 346 345 344 343 343 341 341 341 340 340 340
333 325 324 329 329 328 326 325 325 327 329 330 330 331 333 335 336 337 339 341 341 337 334 338 344 343 344 344 345 344 343 343 344 344 344 345 346 344 341 342 341 341 341
339 326 322 324 327 327 325 325 327 329 330 330 331 332 334 335 336 340 343 343 338 337 334 336 341 344 345 345 343 340 341 340 340 341 343 343 343 344 346 343 341 342 342
337 324 323 323 324 325 326 329 340 343 339 336 338 343 343 343 342 340 339 339 339 337 342 341 343 344 344 342 343 341 341 343 342 342 345 344 344 343 344 346 344 343 342
342 325 324 324 325 326 328 341 344 342 342 338 343 341 340 343 338 343 342 341 338 340 343 343 344 342 342 344 343 343 344 342 341 337 338 342 343 343 343 345 348 347 344
342 330 324 325 326 328 332 343 345 346 345 340 344 340 339 341 344 344 344 340 344 344 343 343 343 341 342 344 345 344 343 341 339 339 340 339 342 344 344 344 345 347 347
340 341 327 326 327 330 340 342 343 344 343 344 346 344 341 342 343 344 341 341 342 343 344 343 341 340 343 345 341 341 341 341 343 343 343 343 343 343 345 346 346 346 347
343 341 338 331 331 330 335 336 340 339 340 344 343 346 347 346 344 343 343 342 342 343 343 342 340 343 345 340 339 341 342 343 343 342 342 343 344 344 344 344 346 347 348
345 342 341 337 333 337 338 338 339 341 343 342 343 344 343 344 346 346 345 346 346 346 345 344 344 343 344 343 344 343 345 341 336 335 335 339 339 341 342 342 345 346 346
345 345 341 341 338 337 338 339 339 339 342 346 346 345 346 346 346 346 343 342 344 345 344 343 343 344 344 341 343 342 341 344 337 329 330 331 332 333 335 340 342 343 343
345 345 345 341 340 339 338 339 339 340 341 345 346 346 345 345 345 346 345 345 343 342 341 344 346 343 342 340 340 341 342 342 339 333 333 336 336 336 339 340 341 342 343
344 344 344 343 340 340 339 340 339 340 341 343 345 346 345 344 342 339 340 339 342 340 344 345 342 341 342 342 341 341 340 339 340 336 332 330 333 332 332 330 328 328 330
345 342 341 342 340 340 339 340 340 342 344 343 343 344 343 344 342 340 343 343 343 343 344 343 342 341 341 341 341 340 339 337 334 338 332 329 328 325 324 325 323 321 320

GFSSE_850_thetae_336.txt.gz
Theta_e
346 347 341 341 340 339 336 334 343 345 343 344 344 341 335 332 335 336 336 335 336 336 336 338 340 340 338 339 335 336 335 335 336 337 339 334 335 336 337 339 342 346 342
346 348 343 342 339 341 339 333 337 345 345 344 344 342 333 333 335 337 338 339 338 340 339 339 340 340 338 334 334 334 336 337 338 339 340 340 339 340 339 340 349 344 336
349 350 345 343 337 338 341 336 331 338 344 345 343 333 340 342 342 340 341 336 334 336 341 338 337 334 331 331 332 333 336 337 339 338 347 349 346 340 338 342 343 339 335
349 350 350 341 341 341 339 339 339 335 336 338 338 340 342 343 340 340 339 337 336 340 335 337 336 335 332 330 330 331 335 336 338 342 346 348 347 341 339 341 340 339 337
348 348 347 341 338 341 342 338 340 340 341 341 342 342 343 342 340 342 333 335 334 333 334 336 337 338 338 338 339 337 334 331 335 346 346 346 345 342 339 340 339 338 339
348 348 342 339 336 341 341 340 340 342 341 341 340 339 340 341 332 341 335 341 341 334 335 338 338 340 341 343 343 343 342 337 343 342 345 342 346 335 336 332 335 335 334
347 348 345 342 342 343 342 341 339 340 339 335 337 343 343 332 330 335 339 341 329 330 332 337 338 339 341 344 344 343 342 342 348 345 343 344 345 333 333 339 338 332 330
346 347 348 343 342 341 336 338 340 340 339 334 342 340 333 331 343 342 334 332 330 328 328 332 335 340 344 343 343 339 339 342 348 347 346 343 334 331 333 333 334 334 334
346 347 348 346 341 339 338 338 339 336 339 338 343 334 329 334 335 332 333 335 334 333 334 338 342 344 343 340 339 339 340 340 347 348 347 345 329 329 330 333 333 333 333
346 346 345 348 349 348 344 336 339 339 340 332 330 330 332 331 332 334 336 337 339 340 341 342 342 341 340 339 340 344 342 342 346 348 349 348 334 330 329 329 331 333 333
346 345 345 346 348 348 347 340 336 337 334 332 332 331 330 344 337 337 344 338 338 339 340 341 343 343 344 346 345 344 343 351 345 347 349 342 338 336 334 330 330 331 333
344 344 344 344 345 349 346 345 347 347 344 340 342 333 345 346 347 348 344 338 339 342 345 342 345 344 345 350 350 346 351 351 350 348 348 342 341 339 337 336 333 330 330
343 343 344 344 345 346 347 346 345 347 346 343 341 336 346 345 341 343 345 344 348 344 346 347 341 346 347 351 351 351 352 353 350 350 348 342 341 341 340 339 338 336 333
341 342 342 344 344 346 347 346 345 347 344 342 342 330 341 339 340 344 345 346 342 341 341 339 346 346 352 352 352 352 352 352 351 350 350 343 342 342 341 341 341 340 339
340 340 340 344 345 345 345 345 346 346 341 341 341 331 341 343 343 344 347 347 347 347 345 338 343 347 346 352 352 351 350 350 350 350 351 345 345 345 342 341 342 341 342
339 339 339 342 345 345 345 346 345 342 341 343 342 340 332 340 341 345 341 347 347 345 345 345 344 348 351 350 351 350 349 348 348 348 349 350 344 344 346 345 342 341 342
341 339 338 339 341 339 331 325 336 341 343 344 345 343 333 336 339 339 350 349 347 347 338 344 342 350 351 349 349 349 348 349 348 348 347 349 350 346 343 345 346 343 342
344 339 340 336 337 332 329 327 340 344 346 346 346 348 341 342 344 344 349 348 346 340 346 350 351 352 350 349 348 347 348 347 348 347 347 347 350 350 350 343 345 346 344
347 343 339 340 337 332 325 327 336 342 343 345 346 349 347 341 343 340 349 349 344 346 351 351 351 347 349 349 347 347 349 346 344 344 340 341 344 348 351 352 347 346 347
346 347 339 339 340 338 331 334 345 346 348 348 347 350 351 349 342 345 347 343 343 350 349 352 345 350 349 351 347 343 345 344 342 343 343 343 345 349 351 354 353 349 346
348 347 346 338 336 334 339 343 346 346 346 346 346 349 350 352 351 342 346 350 351 349 348 344 345 345 342 345 349 346 347 343 341 342 343 346 343 342 344 344 351 354 354
350 348 348 342 329 327 340 343 343 344 343 346 349 350 345 347 347 346 347 353 350 351 346 346 344 342 341 339 344 345 344 346 341 340 341 342 344 340 340 341 342 346 347
350 350 348 341 338 331 335 343 345 347 348 348 349 350 350 344 344 345 347 348 347 343 346 345 343 340 340 342 341 341 343 344 343 338 336 339 340 338 338 339 341 344 344
348 349 351 346 341 339 334 342 342 345 343 342 344 349 350 346 347 346 346 346 347 346 344 341 339 340 340 344 344 341 340 343 343 342 335 335 335 334 333 335 339 343 343
348 348 349 347 345 342 340 338 345 344 345 346 350 348 346 345 345 344 342 340 339 337 339 339 341 340 344 344 342 343 342 341 341 344 340 333 331 330 331 330 332 334 335
347 347 347 347 345 344 342 340 338 345 347 347 347 342 344 345 344 343 342 340 338 339 340 342 343 343 342 342 342 341 340 339 338 340 340 335 333 328 326 326 325 329 331

GFSSE_850_thetae_342.txt.gz
Theta_e
346 341 338 337 333 341 344 343 341 343 340 337 335 333 334 335 335 335 335 336 337 337 338 339 337 335 335 335 334 334 335 336 336 336 337 337 335 336 343 343 345 342 340
345 333 333 339 336 334 340 344 343 343 344 342 340 334 333 335 335 335 335 336 337 337 338 340 340 341 338 335 333 334 335 337 339 337 335 336 335 337 343 342 340 344 339
349 337 338 338 338 336 336 341 344 343 344 344 339 332 333 335 337 338 338 339 342 340 341 338 337 337 336 332 332 335 337 338 343 339 340 340 339 338 341 337 338 342 338
345 340 340 336 340 337 334 334 339 342 343 343 334 338 341 340 341 336 337 336 341 335 333 332 331 334 329 330 333 333 336 345 344 344 345 350 340 338 343 337 339 334 334
348 342 340 336 337 338 336 333 333 337 338 337 338 340 340 339 341 341 335 342 335 336 335 335 335 334 331 330 331 333 337 345 344 337 342 346 343 337 339 342 340 338 336
349 347 339 337 339 337 338 337 336 339 340 341 341 341 340 342 337 338 333 334 335 337 338 339 340 341 339 337 333 330 343 346 344 347 337 344 343 338 339 339 338 338 341
351 346 335 336 339 336 336 336 339 339 339 340 340 341 338 341 338 341 342 342 336 338 338 340 341 343 342 343 341 336 342 344 345 349 341 345 343 333 337 337 338 340 338
353 350 334 336 338 338 337 338 339 338 338 339 339 342 332 331 335 341 333 330 332 335 337 337 340 343 343 341 340 340 340 346 344 345 346 343 334 332 332 331 332 331 331
348 346 340 343 342 339 338 337 338 337 332 334 342 339 330 347 341 333 331 329 328 330 334 340 343 341 339 339 340 340 341 343 341 345 349 345 331 330 332 333 333 333 332
347 347 347 346 345 336 335 337 338 338 335 343 342 330 340 339 332 334 334 334 335 340 342 341 340 339 339 340 342 343 341 343 347 348 343 344 342 330 329 331 332 332 333
347 347 350 348 346 347 347 338 341 338 343 343 335 330 332 334 336 340 345 339 340 341 342 344 344 344 345 346 349 346 344 351 353 340 347 347 337 334 330 330 330 330 331
344 346 347 345 348 348 348 338 339 341 335 333 331 334 348 349 351 350 343 339 340 343 343 348 347 343 346 350 339 348 346 348 351 349 349 341 340 339 336 333 330 330 331
343 342 348 348 348 344 348 343 348 348 347 347 341 344 350 350 348 349 345 341 348 348 350 350 348 348 351 350 342 339 340 339 345 349 345 343 342 341 341 340 337 333 331
343 343 344 348 346 347 348 343 348 348 346 344 341 344 350 349 350 348 351 349 352 352 347 348 346 348 348 351 347 343 345 339 339 337 336 343 342 341 341 342 342 341 338
343 343 343 346 344 348 348 343 346 346 347 345 346 342 352 347 349 348 350 349 351 350 350 350 348 346 352 348 344 342 348 346 344 346 338 343 347 345 344 341 341 342 342
343 343 343 346 345 347 349 345 346 348 346 343 345 340 347 348 348 350 345 343 349 350 348 348 343 343 348 352 349 347 345 348 345 341 346 344 342 346 345 344 344 341 341
341 341 343 345 346 347 348 347 345 348 345 343 344 344 340 346 351 349 350 350 351 350 351 346 347 352 350 351 346 337 346 346 348 346 346 348 351 348 346 350 344 345 341
340 340 340 343 346 347 347 346 344 347 344 343 344 343 341 335 350 350 347 351 349 350 346 349 351 348 349 344 349 347 345 344 344 346 349 349 344 350 347 350 351 344 345
340 339 339 340 344 346 347 346 346 345 343 343 343 346 346 334 339 346 352 352 351 349 348 350 352 350 348 349 348 347 347 343 347 345 344 344 343 347 353 354 335 346 345
342 340 339 339 340 343 345 346 343 343 344 346 345 346 346 348 345 351 349 351 352 347 350 351 347 347 342 340 337 342 343 342 343 342 345 346 350 348 348 351 343 340 352
345 343 340 341 339 339 341 341 342 344 346 346 345 345 349 353 352 350 344 351 350 350 350 347 348 347 347 344 343 343 340 341 340 337 345 345 348 345 342 345 347 346 348
348 348 343 341 340 339 339 338 342 344 346 345 345 346 347 351 350 355 349 349 351 349 342 337 346 346 345 344 343 341 337 336 338 335 341 343 345 345 343 339 341 342 343
349 350 350 343 338 339 339 340 342 345 345 345 345 346 346 346 344 350 353 352 348 348 346 344 345 345 344 342 338 338 337 339 339 340 340 342 342 340 340 340 338 341 342
350 350 350 350 342 334 337 341 340 344 345 345 345 347 351 353 347 340 346 348 350 347 347 347 343 342 338 338 337 336 339 338 340 342 341 341 339 338 338 340 339 337 340
351 352 352 351 350 344 332 341 341 344 344 344 343 344 345 349 352 349 344 346 346 348 347 341 338 339 339 337 334 335 341 337 336 343 343 342 338 337 336 337 340 338 336
350 350 354 353 353 351 345 336 344 342 346 344 346 344 345 346 349 348 346 348 348 347 345 341 340 339 338 338 339 341 341 341 341 341 341 341 337 333 332 331 335 336 336

GFSSE_850_thetae_348.txt.gz
Theta_e
342 338 337 339 335 333 334 332 333 333 333 333 334 335 335 336 336 336 335 334 334 334 334 334 335 336 336 335 336 340 342 343 343 342 340 337 337 338 338 337 339 334 332
342 338 341 343 340 335 336 336 336 335 333 333 334 334 335 335 335 336 336 336 336 337 337 336 335 335 335 334 335 336 336 337 337 337 336 336 338 341 341 344 337 334 329
339 341 342 343 343 341 340 342 342 340 338 333 331 332 334 334 334 335 335 336 336 337 339 339 339 339 338 335 336 336 338 339 335 336 336 336 337 340 341 342 338 334 328
338 336 332 331 337 342 342 342 342 342 340 331 331 333 335 335 335 336 338 337 337 336 338 340 338 335 333 335 337 340 342 338 337 338 336 336 338 341 337 337 339 335 334
334 333 334 334 333 337 342 342 342 342 338 333 337 337 337 335 332 337 337 334 331 330 332 333 328 330 333 333 337 343 343 342 339 341 342 339 338 341 336 341 340 337 339
335 336 335 334 334 334 335 338 340 341 335 337 336 335 336 336 336 334 334 334 335 335 335 333 331 331 331 335 338 343 341 340 337 337 341 339 337 340 336 337 337 335 334
337 333 334 335 334 333 333 335 337 336 337 336 334 337 335 335 331 336 335 336 338 340 340 338 338 338 337 333 339 343 343 334 342 341 342 337 336 340 339 339 333 331 330
338 333 332 335 333 335 337 342 338 339 337 337 336 339 334 333 333 335 335 337 338 339 341 342 342 341 339 338 337 341 341 343 343 340 341 340 336 338 339 339 336 338 336
340 332 333 335 334 339 336 338 338 338 337 336 335 338 334 339 333 332 333 334 336 338 340 340 340 340 340 341 340 339 341 341 341 341 338 339 339 336 336 335 335 339 335
342 337 331 333 331 336 337 337 334 334 334 338 333 328 331 333 329 328 329 334 339 340 340 340 340 341 344 343 342 342 337 336 338 342 342 342 341 333 333 333 334 336 332
339 333 330 330 332 333 335 334 333 335 337 338 329 342 337 330 329 331 337 340 342 345 344 343 344 345 346 343 339 339 340 333 340 340 339 343 339 334 335 332 331 331 331
341 333 331 332 330 330 333 332 331 329 334 331 330 335 333 338 340 339 339 342 344 349 349 347 348 349 346 338 337 338 338 339 336 334 341 342 341 333 333 333 333 332 332
346 344 341 334 330 330 331 331 331 336 340 328 330 340 347 347 347 346 342 344 348 346 346 347 349 347 343 338 336 335 336 337 337 337 341 344 343 335 332 330 331 331 331
346 346 344 342 338 330 340 334 330 329 328 328 332 346 347 348 346 348 349 347 348 346 348 348 346 347 345 341 340 339 339 338 338 339 343 342 341 337 336 331 331 330 331
345 346 346 345 339 337 346 337 340 329 328 332 347 348 349 348 348 347 349 347 348 348 348 348 347 346 344 338 342 341 342 339 337 338 341 342 341 340 338 338 338 335 333
342 344 346 347 342 346 346 344 344 345 345 332 346 348 350 350 349 348 348 348 349 348 349 347 345 344 346 344 343 343 340 339 336 343 340 341 342 342 341 340 339 338 338
342 342 346 347 344 346 347 345 345 345 346 344 340 340 343 348 349 348 347 348 347 349 349 348 348 347 346 345 345 344 343 342 345 345 344 343 343 345 345 343 343 341 340
342 342 343 347 346 347 349 344 347 346 348 345 343 343 339 346 347 344 345 345 349 350 349 349 348 347 345 345 344 343 342 345 345 345 343 337 345 345 342 340 345 345 344
343 342 342 344 345 345 348 346 347 348 346 344 343 344 343 339 346 345 343 347 351 350 348 348 348 347 344 343 344 344 343 339 341 343 345 341 343 347 346 346 348 344 342
342 342 342 342 345 344 345 347 344 347 347 345 343 342 343 342 342 340 343 348 348 348 347 348 347 347 345 341 339 338 339 340 341 341 344 344 343 342 344 344 344 343 340
341 342 341 342 342 342 342 338 344 346 346 345 343 342 342 343 345 336 336 342 347 351 350 346 347 346 346 343 343 342 341 340 343 343 343 345 346 339 337 340 341 344 343
340 340 340 340 339 339 339 338 337 338 342 345 343 343 344 343 345 346 345 341 350 348 349 348 345 347 345 342 342 342 339 339 338 343 344 344 342 342 341 340 337 343 343
340 339 339 339 339 338 339 338 337 331 331 341 342 343 347 345 345 346 349 345 346 346 343 341 345 346 339 340 343 339 337 337 340 339 339 342 342 342 341 338 337 340 342
344 340 340 341 341 341 339 338 336 332 327 336 340 346 346 346 345 348 350 348 346 347 344 339 341 342 342 343 342 338 337 336 338 339 341 340 340 338 338 338 337 336 340
346 342 341 343 345 345 340 336 336 336 329 338 344 345 344 345 345 351 347 348 344 342 341 344 340 345 343 343 338 338 335 335 338 338 340 339 338 337 337 336 335 335 335
346 345 343 343 347 347 341 337 335 335 331 342 344 345 346 347 347 349 347 346 342 342 344 343 343 342 342 341 338 338 339 339 340 335 338 340 339 336 335 335 334 334 334